ECHOSTAR 17

Last updated on Thu Nov 21 2024 00:02:42 GMT+0000 (Coordinated Universal Time)

1 38551U 12035A 24325.45600196 -.00000073 00000+0 00000+0 0 9999 2 38551 0.0112 311.6357 0001940 285.4189 239.9597 1.00270242 45310
UTC large
Height (km)
Speed (km/s)
/
Latitude / Longitude
Inclination (degrees)
Orbital Period (minutes)
Azimuth
Elevation
Range (km)
Doppler Factor

Next 0 passes for location: London (51.5072 / 0.1276)

Sorry there are no passes over London.